Capri, Italy

9:47 AM CEST on May 27, 2017 (GMT +0200)
Capri

Weather History for LIQC - November, 2012

Change the Weather History Date:

Tuesday, November 13, 2012

  Actual Average (LIRN) Record (LIRN)
Temperature  
Mean Temperature 68 °F -  
Max Temperature 73 °F 64 °F 77 °F (2012)
Min Temperature 64 °F 48 °F 38 °F (2016)
Cooling Degree Days 4    
Growing Degree Days 18 (Base 50)    
Moisture  
Dew Point 64 °F    
Average Humidity 89    
Maximum Humidity 100    
Minimum Humidity 70    
Precipitation  
Precipitation 0.00 in - - ()
Sea Level Pressure  
Sea Level Pressure 30.16 in    
Wind  
Wind Speed 1 mph ()    
Max Wind Speed 5 mph    
Max Gust Speed 20 mph    
Visibility 8.8 miles    
Events      
Averages and records for this station are not official NWS values.
T = Trace of Precipitation, MM = Missing Value Source: Averaged Metar Reports

Daily Weather History Graph

Daily Weather History Graph

Search for Another Location

Airport or City:

Trip Planner

Search our weather history database for the weather conditions in past years. The results will help you decide how hot, cold, wet, or windy it might be!

Date:

Astronomy

Nov. 13, 2012 Rise Set
Actual Time 6:47 AM CET 4:47 PM CET
Civil Twilight 6:18 AM CET 5:16 PM CET
Nautical Twilight 5:45 AM CET 5:49 PM CET
Astronomical Twilight 5:13 AM CET 6:21 PM CET
Moon 6:04 AM CET (11/13) 4:25 PM CET (11/13)
Length of Visible Light 10h 57m
Length of Day
9h 59m
Waning Crescent, 0% of the Moon is Illuminated
Nov 13
Waning Crescent
Nov 13
New
Nov 20
First Quarter
Nov 28
Full
Dec 6
Last Quarter

Hourly Weather History & Observations

Time (CET) Temp. Dew Point Humidity Pressure Visibility Wind Dir Wind Speed Gust Speed Precip Events Conditions
1:00 AM 68 °F 68 °F 100% 30.15 in 6 mi Calm Calm - -  
4:00 AM 66 °F 65 °F 94% 30.15 in 6 mi Calm Calm - -   Mostly Cloudy
5:55 AM 64.4 °F 62.6 °F 94% 30.15 in 6.2 mi Calm Calm - N/A   Mostly Cloudy
6:55 AM 66.2 °F 62.6 °F 88% 30.15 in 6.2 mi Calm Calm - N/A   Mostly Cloudy
7:00 AM 66 °F 63 °F 87% 30.15 in 6 mi Calm Calm - -  
7:55 AM 66.2 °F 62.6 °F 88% 30.15 in 6.2 mi Calm Calm - N/A   Partly Cloudy
8:55 AM 68.0 °F 64.4 °F 88% 30.18 in - Calm Calm - N/A   Clear
9:55 AM 68.0 °F 60.8 °F 78% 30.18 in - ENE 4.6 mph 19.6 mph N/A   Clear
10:00 AM 68 °F 60 °F 70% 30.18 in 12 mi ENE 4.6 mph - -   Partly Cloudy
10:55 AM 68.0 °F 64.4 °F 88% 30.18 in - NE 3.5 mph - N/A   Clear
11:55 AM 73.4 °F 66.2 °F 78% 30.18 in - NE 1.2 mph - N/A   Clear
12:55 PM 71.6 °F 64.4 °F 78% 30.18 in - NNE 1.2 mph - N/A   Clear
1:00 PM 71 °F 64 °F 74% 30.17 in 12 mi NNE 1.2 mph - -  
1:55 PM 71.6 °F 68.0 °F 88% 30.15 in - NE 2.3 mph - N/A   Clear
2:55 PM 73.4 °F 66.2 °F 78% 30.15 in - Variable 1.2 mph - N/A   Clear
3:55 PM 68.0 °F 66.2 °F 94% 30.15 in - Calm Calm - N/A   Clear
4:00 PM 68 °F 66 °F 92% 30.15 in 12 mi Calm Calm - -   Partly Cloudy
4:55 PM 68.0 °F 66.2 °F 94% 30.15 in - Variable 1.2 mph - N/A   Clear
5:55 PM 66.2 °F 64.4 °F 94% 30.15 in - Variable 1.2 mph - N/A   Clear
6:55 PM 66.2 °F 64.4 °F 94% 30.15 in - Calm Calm - N/A   Clear
7:00 PM 67 °F 64 °F 85% 30.15 in 12 mi Calm Calm - -  
7:55 PM 66.2 °F 66.2 °F 100% 30.15 in - Calm Calm - N/A   Clear
8:55 PM 66.2 °F 66.2 °F 100% 30.15 in - Calm Calm - N/A   Clear
9:55 PM 66.2 °F 64.4 °F 94% 30.15 in - Calm Calm - N/A   Clear
10:00 PM 66 °F 64 °F 90% 30.16 in 12 mi Calm Calm - -   Mostly Cloudy
10:55 PM 66.2 °F 62.6 °F 88% 30.15 in - ENE 3.5 mph - N/A   Clear
11:55 PM 66.2 °F 64.4 °F 94% 30.15 in - ENE 3.5 mph - N/A   Clear